Time,TemperatureF,DewpointF,PressureIn,WindDirection,WindDirectionDegrees,WindSpeedMPH,WindSpeedGustMPH,Humidity,HourlyPrecipIn,Conditions,Clouds,dailyrainin,SoftwareType,DateUTC
2013-03-20 00:10:00,64.0,-99.9,-100.00,WSW,244,1.0,3.0,-999,-99.99,,,-99.99,,2013-03-20 06:10:00,
2013-03-20 00:32:00,65.0,-99.9,-100.00,North,359,1.0,3.0,-999,-99.99,,,-99.99,,2013-03-20 06:32:00,
2013-03-20 00:43:00,65.0,-99.9,-100.00,North,359,1.0,3.0,-999,-99.99,,,-99.99,,2013-03-20 06:43:00,
2013-03-20 00:53:00,64.0,-99.9,-100.00,WSW,244,1.0,3.0,-999,-99.99,,,-99.99,,2013-03-20 06:53:00,
2013-03-20 01:02:00,64.0,-99.9,-100.00,WSW,244,1.0,3.0,-999,-99.99,,,-99.99,,2013-03-20 07:02:00,
2013-03-20 02:00:00,60.0,-99.9,-100.00,NNE,32,3.0,3.0,-999,-99.99,,,-99.99,,2013-03-20 08:00:00,
2013-03-20 02:52:00,60.0,-99.9,-100.00,NNE,32,3.0,3.0,-999,-99.99,,,-99.99,,2013-03-20 08:52:00,
2013-03-20 04:00:00,55.0,-99.9,-100.00,NNE,12,1.0,1.0,-999,-99.99,,,-99.99,,2013-03-20 10:00:00,
2013-03-20 04:40:00,53.0,-99.9,-100.00,SSW,200,2.0,6.0,-999,-99.99,,,-99.99,,2013-03-20 10:40:00,
2013-03-20 04:53:00,55.0,-99.9,-100.00,NNE,12,1.0,1.0,-999,-99.99,,,-99.99,,2013-03-20 10:53:00,
2013-03-20 05:23:00,53.0,-99.9,-100.00,SSW,200,2.0,6.0,-999,-99.99,,,-99.99,,2013-03-20 11:23:00,
2013-03-20 05:33:00,53.0,-99.9,-100.00,SSW,200,2.0,6.0,-999,-99.99,,,-99.99,,2013-03-20 11:33:00,
2013-03-20 07:22:00,51.0,-99.9,-100.00,SE,135,1.0,2.0,-999,-99.99,,,-99.99,,2013-03-20 13:22:00,
2013-03-20 07:32:00,51.0,-99.9,-100.00,SE,135,1.0,2.0,-999,-99.99,,,-99.99,,2013-03-20 13:32:00,
2013-03-20 07:43:00,51.0,-99.9,-100.00,SE,135,1.0,2.0,-999,-99.99,,,-99.99,,2013-03-20 13:43:00,
2013-03-20 08:23:00,37.0,-99.9,-100.00,SSW,205,4.0,4.0,-999,-99.99,,,-99.99,,2013-03-20 14:23:00,
2013-03-20 08:34:00,52.0,-99.9,-100.00,SSW,204,1.0,2.0,-999,-99.99,,,-99.99,,2013-03-20 14:34:00,
2013-03-20 08:43:00,52.0,-99.9,-100.00,SSW,204,1.0,2.0,-999,-99.99,,,-99.99,,2013-03-20 14:43:00,
2013-03-20 08:50:00,56.0,-99.9,-100.00,South,173,2.0,5.0,-999,-99.99,,,-99.99,,2013-03-20 14:50:00,
2013-03-20 09:30:00,58.0,-99.9,-100.00,NE,48,4.0,4.0,-999,-99.99,,,-99.99,,2013-03-20 15:30:00,
2013-03-20 09:34:00,56.0,-99.9,-100.00,South,173,2.0,5.0,-999,-99.99,,,-99.99,,2013-03-20 15:34:00,
2013-03-20 09:44:00,56.0,-99.9,-100.00,South,173,2.0,5.0,-999,-99.99,,,-99.99,,2013-03-20 15:44:00,
2013-03-20 10:24:00,58.0,-99.9,-100.00,NE,48,4.0,4.0,-999,-99.99,,,-99.99,,2013-03-20 16:24:00,
2013-03-20 11:03:00,60.0,-99.9,-100.00,WSW,246,0.0,5.0,-999,-99.99,,,-99.99,,2013-03-20 17:03:00,
2013-03-20 11:12:00,60.0,-99.9,-100.00,WSW,246,0.0,5.0,-999,-99.99,,,-99.99,,2013-03-20 17:12:00,
2013-03-20 11:22:00,51.0,-99.9,-100.00,NNW,342,1.0,2.0,-999,-99.99,,,-99.99,,2013-03-20 17:22:00,
2013-03-20 11:33:00,51.0,-99.9,-100.00,NNW,342,1.0,2.0,-999,-99.99,,,-99.99,,2013-03-20 17:33:00,
2013-03-20 11:53:00,63.0,-99.9,-100.00,ESE,118,2.0,3.0,-999,-99.99,,,-99.99,,2013-03-20 17:53:00,
2013-03-20 12:03:00,65.0,-99.9,-100.00,SW,215,4.0,4.0,-999,-99.99,,,-99.99,,2013-03-20 18:03:00,
2013-03-20 12:12:00,65.0,-99.9,-100.00,SW,215,4.0,4.0,-999,-99.99,,,-99.99,,2013-03-20 18:12:00,
2013-03-20 14:02:00,69.0,-99.9,-100.00,SE,126,4.0,6.0,-999,-99.99,,,-99.99,,2013-03-20 20:02:00,
2013-03-20 14:13:00,69.0,-99.9,-100.00,SE,126,4.0,6.0,-999,-99.99,,,-99.99,,2013-03-20 20:13:00,
2013-03-20 14:23:00,71.0,-99.9,-100.00,SE,140,5.0,5.0,-999,-99.99,,,-99.99,,2013-03-20 20:23:00,
2013-03-20 14:32:00,71.0,-99.9,-100.00,SE,140,5.0,5.0,-999,-99.99,,,-99.99,,2013-03-20 20:32:00,
2013-03-20 14:43:00,71.0,-99.9,-100.00,SE,140,5.0,5.0,-999,-99.99,,,-99.99,,2013-03-20 20:43:00,
2013-03-20 14:50:00,74.0,-99.9,-100.00,North,10,1.0,5.0,-999,-99.99,,,-99.99,,2013-03-20 20:50:00,
2013-03-20 15:33:00,74.0,-99.9,-100.00,North,10,1.0,5.0,-999,-99.99,,,-99.99,,2013-03-20 21:33:00,
2013-03-20 15:42:00,74.0,-99.9,-100.00,North,10,1.0,5.0,-999,-99.99,,,-99.99,,2013-03-20 21:42:00,
2013-03-20 16:50:00,76.0,-99.9,-100.00,South,190,3.0,4.0,-999,-99.99,,,-99.99,,2013-03-20 22:50:00,
2013-03-20 17:33:00,76.0,-99.9,-100.00,South,190,3.0,4.0,-999,-99.99,,,-99.99,,2013-03-20 23:33:00,
2013-03-20 17:43:00,76.0,-99.9,-100.00,South,190,3.0,4.0,-999,-99.99,,,-99.99,,2013-03-20 23:43:00,
2013-03-20 18:03:00,74.0,-99.9,-100.00,SW,227,2.0,3.0,-999,-99.99,,,-99.99,,2013-03-21 00:03:00,
2013-03-20 18:13:00,74.0,-99.9,-100.00,SW,227,2.0,3.0,-999,-99.99,,,-99.99,,2013-03-21 00:13:00,
2013-03-20 18:23:00,75.0,-99.9,-100.00,ENE,63,0.0,2.0,-999,-99.99,,,-99.99,,2013-03-21 00:23:00,
2013-03-20 18:33:00,75.0,-99.9,-100.00,WSW,239,3.0,5.0,-999,-99.99,,,-99.99,,2013-03-21 00:33:00,
2013-03-20 18:43:00,75.0,-99.9,-100.00,WSW,239,3.0,5.0,-999,-99.99,,,-99.99,,2013-03-21 00:43:00,
2013-03-20 18:53:00,75.0,-99.9,-100.00,WSW,239,3.0,5.0,-999,-99.99,,,-99.99,,2013-03-21 00:53:00,
2013-03-20 19:40:00,69.0,-99.9,-100.00,NNE,23,4.0,6.0,-999,-99.99,,,-99.99,,2013-03-21 01:40:00,
2013-03-20 19:53:00,73.0,-99.9,-100.00,SSW,205,4.0,4.0,-999,-99.99,,,-99.99,,2013-03-21 01:53:00,
2013-03-20 20:03:00,73.0,-99.9,-100.00,SSW,205,4.0,4.0,-999,-99.99,,,-99.99,,2013-03-21 02:03:00,
2013-03-20 20:23:00,69.0,-99.9,-100.00,NNE,23,4.0,6.0,-999,-99.99,,,-99.99,,2013-03-21 02:23:00,
2013-03-20 20:30:00,66.0,-99.9,-100.00,SSW,212,4.0,6.0,-999,-99.99,,,-99.99,,2013-03-21 02:30:00,
2013-03-20 20:33:00,69.0,-99.9,-100.00,NNE,23,4.0,6.0,-999,-99.99,,,-99.99,,2013-03-21 02:33:00,
2013-03-20 21:22:00,66.0,-99.9,-100.00,SSW,212,4.0,6.0,-999,-99.99,,,-99.99,,2013-03-21 03:22:00,
2013-03-20 21:40:00,66.0,-99.9,-100.00,NNE,12,1.0,5.0,-999,-99.99,,,-99.99,,2013-03-21 03:40:00,
2013-03-20 22:23:00,66.0,-99.9,-100.00,NNE,12,1.0,5.0,-999,-99.99,,,-99.99,,2013-03-21 04:23:00,
2013-03-20 22:33:00,66.0,-99.9,-100.00,NNE,12,1.0,5.0,-999,-99.99,,,-99.99,,2013-03-21 04:33:00,